| time (UTC) | temp F | wind direction | speed MPH | gust MPH | rain 1hr in | rain 24hr in | rain mn in | humidity % | barometer mb |
| 20260906194541 | 72 | 0 | 0.0 | 4.0 | 0.00 | 0.03 | 0.01 | 61 | 1017.5 |
| 20260906193521 | 72 | 0 | 1.0 | 7.0 | 0.00 | 0.03 | 0.01 | 60 | 1017.3 |
| 20260906193038 | 73 | 360 | 0.0 | 9.0 | 0.00 | 0.03 | 0.01 | 61 | 1017.3 |
| 20260906192521 | 73 | 15 | 2.0 | 9.0 | 0.00 | 0.03 | 0.01 | 59 | 1017.3 |
| 20260906191545 | 74 | 269 | 2.0 | 9.0 | 0.00 | 0.03 | 0.01 | 59 | 1017.3 |
| 20260906190045 | 74 | 0 | 1.0 | 9.0 | 0.00 | 0.03 | 0.01 | 60 | 1017.3 |
| 20260906184544 | 74 | 356 | 1.0 | 7.0 | 0.00 | 0.03 | 0.01 | 59 | 1017.2 |
| 20260906183521 | 74 | 0 | 2.0 | 7.0 | 0.00 | 0.03 | 0.01 | 63 | 1017.4 |
| 20260906183104 | 74 | 343 | 0.0 | 7.0 | 0.00 | 0.03 | 0.01 | 62 | 1017.3 |
| 20260906182520 | 74 | 2 | 3.0 | 10.0 | 0.00 | 0.03 | 0.01 | 57 | 1017.2 |
| 20260906182025 | 74 | 304 | 2.0 | 10.0 | 0.00 | 0.03 | 0.01 | 60 | 1017.5 |
| 20260906181553 | 74 | 342 | 2.0 | 10.0 | 0.00 | 0.03 | 0.01 | 57 | 1017.5 |
| 20260906181017 | 74 | 360 | 1.0 | 7.0 | 0.00 | 0.03 | 0.01 | 58 | 1017.6 |
| 20260906180111 | 73 | 42 | 1.0 | 5.0 | 0.00 | 0.03 | 0.01 | 59 | 1017.7 |
| 20260906174542 | 73 | 260 | 2.0 | 10.0 | 0.00 | 0.03 | 0.01 | 58 | 1017.5 |
| 20260906173041 | 73 | 252 | 3.0 | 9.0 | 0.00 | 0.03 | 0.01 | 61 | 1017.7 |
| 20260906172022 | 73 | 0 | 2.0 | 9.0 | 0.00 | 0.03 | 0.01 | 59 | 1017.8 |
| 20260906171541 | 73 | 358 | 3.0 | 9.0 | 0.00 | 0.03 | 0.01 | 62 | 1017.8 |
| 20260906171020 | 73 | 0 | 1.0 | 7.0 | 0.00 | 0.03 | 0.01 | 63 | 1017.9 |
| 20260906170520 | 72 | 61 | 1.0 | 7.0 | 0.00 | 0.03 | 0.01 | 64 | 1017.9 |
| 20260906170046 | 72 | 317 | 3.0 | 7.0 | 0.00 | 0.03 | 0.01 | 62 | 1017.8 |
| 20260906165521 | 72 | 3 | 3.0 | 6.0 | 0.00 | 0.03 | 0.01 | 61 | 1017.8 |
| 20260906164543 | 72 | 284 | 0.0 | 10.0 | 0.00 | 0.03 | 0.01 | 62 | 1017.8 |
| 20260906163040 | 72 | 356 | 2.0 | 9.0 | 0.00 | 0.03 | 0.01 | 60 | 1018.0 |
| 20260906162017 | 71 | 0 | 2.0 | 11.0 | 0.00 | 0.03 | 0.01 | 63 | 1018.1 |
| 20260906161543 | 72 | 351 | 4.0 | 11.0 | 0.00 | 0.03 | 0.01 | 61 | 1018.0 |
| 20260906161019 | 72 | 275 | 1.0 | 9.0 | 0.00 | 0.03 | 0.01 | 65 | 1018.0 |
| 20260906160518 | 72 | 4 | 1.0 | 7.0 | 0.00 | 0.03 | 0.01 | 64 | 1018.0 |
| 20260906160040 | 71 | 0 | 1.0 | 7.0 | 0.00 | 0.03 | 0.01 | 69 | 1018.1 |
| 20260906154539 | 70 | 19 | 2.0 | 8.0 | 0.00 | 0.03 | 0.01 | 69 | 1018.3 |
| 20260906153520 | 69 | 26 | 3.0 | 8.0 | 0.00 | 0.03 | 0.01 | 71 | 1018.2 |
| 20260906153040 | 69 | 265 | 1.0 | 6.0 | 0.00 | 0.03 | 0.01 | 73 | 1018.2 |
| 20260906152520 | 69 | 29 | 1.0 | 6.0 | 0.00 | 0.03 | 0.01 | 73 | 1018.3 |
| 20260906152020 | 69 | 58 | 1.0 | 6.0 | 0.00 | 0.03 | 0.01 | 74 | 1018.3 |
| 20260906151539 | 69 | 275 | 1.0 | 6.0 | 0.00 | 0.03 | 0.01 | 75 | 1018.3 |
| 20260906150048 | 68 | 0 | 0.0 | 4.0 | 0.00 | 0.03 | 0.01 | 76 | 1018.3 |
| 20260906144545 | 68 | 53 | 0.0 | 10.0 | 0.00 | 0.03 | 0.01 | 82 | 1018.2 |
| 20260906143038 | 67 | 0 | 1.0 | 5.0 | 0.00 | 0.03 | 0.01 | 80 | 1018.2 |
| 20260906142520 | 67 | 358 | 0.0 | 6.0 | 0.00 | 0.03 | 0.01 | 83 | 1018.2 |
| 20260906142021 | 66 | 30 | 2.0 | 7.0 | 0.00 | 0.03 | 0.01 | 82 | 1018.1 |
| 20260906141541 | 66 | 36 | 0.0 | 7.0 | 0.00 | 0.03 | 0.01 | 85 | 1018.2 |
| 20260906141018 | 66 | 9 | 0.0 | 5.0 | 0.00 | 0.03 | 0.01 | 86 | 1018.1 |
| 20260906140520 | 65 | 28 | 0.0 | 5.0 | 0.00 | 0.03 | 0.01 | 87 | 1018.1 |
| 20260906140042 | 65 | 358 | 1.0 | 5.0 | 0.00 | 0.03 | 0.01 | 89 | 1018.1 |
| 20260906134545 | 63 | 354 | 0.0 | 3.0 | 0.00 | 0.03 | 0.01 | 96 | 1018.0 |
| 20260906133039 | 61 | 0 | 0.0 | 3.0 | 0.00 | 0.03 | 0.01 | 98 | 1018.0 |
| 20260906132521 | 61 | 0 | 0.0 | 3.0 | 0.00 | 0.03 | 0.01 | 98 | 1018.1 |
| 20260906132017 | 61 | 0 | 0.0 | 3.0 | 0.00 | 0.03 | 0.01 | 99 | 1018.1 |
| 20260906131538 | 61 | 0 | 0.0 | 3.0 | 0.00 | 0.03 | 0.01 | 99 | 1018.1 |
| 20260906131024 | 61 | 40 | 0.0 | 2.0 | 0.00 | 0.03 | 0.01 | 99 | 1018.2 |
| 20260906130521 | 60 | 0 | 0.0 | 2.0 | 0.00 | 0.03 | 0.01 | 99 | 1018.1 |
| 20260906130039 | 60 | 0 | 0.0 | 1.0 | 0.00 | 0.03 | 0.01 | 99 | 1018.0 |
| 20260906125518 | 60 | 0 | 0.0 | 1.0 | 0.00 | 0.03 | 0.01 | 99 | 1018.2 |
| 20260906124541 | 60 | 0 | 0.0 | 0.0 | 0.00 | 0.03 | 0.01 | 99 | 1017.9 |
| 20260906123042 | 60 | 0 | 0.0 | 0.0 | 0.00 | 0.03 | 0.01 | 98 | 1017.8 |
| 20260906122021 | 60 | 0 | 0.0 | 0.0 | 0.01 | 0.03 | 0.01 | 99 | 1017.6 |
| 20260906121543 | 60 | 0 | 0.0 | 0.0 | 0.01 | 0.03 | 0.01 | 99 | 1017.8 |
| 20260906120520 | 60 | 0 | 0.0 | 1.0 | 0.01 | 0.03 | 0.01 | 99 | 1017.8 |
| 20260906120040 | 60 | 0 | 0.0 | 1.0 | 0.01 | 0.03 | 0.01 | 99 | 1017.7 |
| 20260906114551 | 59 | 0 | 0.0 | 1.0 | 0.01 | 0.03 | 0.01 | 99 | 1017.4 |
| 20260906113051 | 59 | 0 | 0.0 | 0.0 | 0.01 | 0.03 | 0.01 | 99 | 1017.3 |
| 20260906112018 | 58 | 0 | 0.0 | 0.0 | 0.00 | 0.02 | 0.00 | 99 | 1017.2 |
| 20260906111538 | 58 | 0 | 0.0 | 0.0 | 0.00 | 0.02 | 0.00 | 99 | 1017.2 |
| 20260906111018 | 57 | 0 | 0.0 | 0.0 | 0.00 | 0.02 | 0.00 | 99 | 1017.2 |
| 20260906110520 | 57 | 0 | 0.0 | 0.0 | 0.00 | 0.02 | 0.00 | 99 | 1017.0 |
| 20260906110039 | 57 | 0 | 0.0 | 0.0 | 0.00 | 0.02 | 0.00 | 99 | 1017.0 |
| 20260906104540 | 57 | 0 | 0.0 | 0.0 | 0.00 | 0.02 | 0.00 | 99 | 1016.7 |
| 20260906103039 | 56 | 0 | 0.0 | 0.0 | 0.00 | 0.02 | 0.00 | 99 | 1016.5 |
| 20260906102523 | 56 | 0 | 0.0 | 0.0 | 0.00 | 0.02 | 0.00 | 98 | 1016.6 |
| 20260906101538 | 55 | 0 | 0.0 | 0.0 | 0.00 | 0.02 | 0.00 | 98 | 1016.5 |
| 20260906101018 | 55 | 0 | 0.0 | 0.0 | 0.00 | 0.02 | 0.00 | 98 | 1016.5 |
| 20260906100518 | 55 | 0 | 0.0 | 0.0 | 0.00 | 0.02 | 0.00 | 98 | 1016.4 |
| 20260906100040 | 55 | 0 | 0.0 | 0.0 | 0.00 | 0.02 | 0.00 | 98 | 1016.4 |
| 20260906094541 | 55 | 0 | 0.0 | 0.0 | 0.00 | 0.02 | 0.00 | 98 | 1016.2 |
| 20260906093038 | 55 | 0 | 0.0 | 0.0 | 0.00 | 0.02 | 0.00 | 98 | 1015.9 |
| 20260906091540 | 55 | 0 | 0.0 | 0.0 | 0.00 | 0.02 | 0.00 | 98 | 1015.6 |
| 20260906090042 | 55 | 0 | 0.0 | 0.0 | 0.00 | 0.02 | 0.00 | 98 | 1015.7 |
| 20260906085021 | 55 | 0 | 0.0 | 0.0 | 0.00 | 0.02 | 0.00 | 98 | 1015.6 |
| 20260906084539 | 55 | 0 | 0.0 | 0.0 | 0.00 | 0.02 | 0.00 | 98 | 1015.5 |
| 20260906084021 | 55 | 0 | 0.0 | 0.0 | 0.00 | 0.02 | 0.00 | 98 | 1015.4 |
| 20260906083523 | 55 | 0 | 0.0 | 0.0 | 0.00 | 0.02 | 0.00 | 98 | 1015.4 |
| 20260906083042 | 55 | 0 | 0.0 | 0.0 | 0.00 | 0.02 | 0.00 | 97 | 1015.2 |
| 20260906081545 | 56 | 0 | 0.0 | 0.0 | 0.00 | 0.02 | 0.00 | 98 | 1015.0 |
| 20260906080041 | 56 | 0 | 0.0 | 0.0 | 0.00 | 0.02 | 0.00 | 98 | 1015.0 |
| 20260906075521 | 56 | 0 | 0.0 | 0.0 | 0.00 | 0.02 | 0.00 | 97 | 1015.0 |
| 20260906075021 | 56 | 0 | 0.0 | 0.0 | 0.00 | 0.02 | 0.00 | 98 | 1014.9 |
| 20260906074553 | 56 | 0 | 0.0 | 0.0 | 0.00 | 0.02 | 0.00 | 98 | 1014.9 |
| 20260906074020 | 56 | 0 | 0.0 | 0.0 | 0.00 | 0.02 | 0.00 | 98 | 1015.0 |
| 20260906073518 | 56 | 0 | 0.0 | 0.0 | 0.00 | 0.02 | 0.00 | 97 | 1015.0 |
| 20260906073037 | 57 | 0 | 0.0 | 0.0 | 0.00 | 0.02 | 0.00 | 97 | 1014.9 |
| 20260906071539 | 57 | 0 | 0.0 | 0.0 | 0.00 | 0.02 | 0.00 | 97 | 1015.0 |
| 20260906070039 | 57 | 0 | 0.0 | 0.0 | 0.00 | 0.02 | 0.00 | 97 | 1014.8 |
| 20260906065520 | 58 | 0 | 0.0 | 0.0 | 0.00 | 0.02 | 0.00 | 97 | 1014.9 |
| 20260906065021 | 58 | 0 | 0.0 | 0.0 | 0.00 | 0.02 | 0.00 | 97 | 1014.9 |
| 20260906064536 | 58 | 0 | 0.0 | 0.0 | 0.00 | 0.02 | 0.00 | 98 | 1014.9 |
| 20260906063041 | 58 | 0 | 0.0 | 0.0 | 0.00 | 0.02 | 0.00 | 98 | 1014.9 |
| 20260906061539 | 58 | 0 | 0.0 | 0.0 | 0.00 | 0.02 | 0.00 | 98 | 1015.0 |
| 20260906061020 | 58 | 0 | 0.0 | 0.0 | 0.00 | 0.02 | 0.00 | 98 | 1014.9 |
| 20260906060520 | 58 | 0 | 0.0 | 0.0 | 0.00 | 0.02 | 0.00 | 98 | 1014.9 |
| 20260906060039 | 58 | 0 | 0.0 | 0.0 | 0.00 | 0.02 | 0.00 | 97 | 1014.8 |
| 20260906055519 | 58 | 0 | 0.0 | 0.0 | 0.00 | 0.02 | 0.00 | 97 | 1015.0 |
| 20260906054540 | 59 | 0 | 0.0 | 0.0 | 0.00 | 0.02 | 0.00 | 97 | 1014.9 |
| 20260906053039 | 59 | 0 | 0.0 | 0.0 | 0.00 | 0.02 | 0.00 | 97 | 1015.0 |
| 20260906051546 | 59 | 0 | 0.0 | 0.0 | 0.00 | 0.02 | 0.00 | 98 | 1015.0 |
| 20260906051020 | 59 | 0 | 0.0 | 0.0 | 0.00 | 0.02 | 0.00 | 98 | 1015.0 |
| 20260906050520 | 59 | 0 | 0.0 | 0.0 | 0.00 | 0.02 | 0.00 | 98 | 1015.0 |
| 20260906050046 | 59 | 0 | 0.0 | 0.0 | 0.00 | 0.02 | 0.00 | 98 | 1015.1 |
| 20260906045520 | 59 | 0 | 0.0 | 0.0 | 0.00 | 0.02 | 0.00 | 98 | 1015.1 |
| 20260906044542 | 59 | 0 | 0.0 | 0.0 | 0.00 | 0.02 | 0.00 | 97 | 1015.0 |
| 20260906043038 | 59 | 0 | 0.0 | 0.0 | 0.00 | 0.02 | 0.00 | 97 | 1015.3 |
| 20260906042520 | 59 | 0 | 0.0 | 0.0 | 0.00 | 0.02 | 0.00 | 97 | 1015.3 |
| 20260906042020 | 59 | 0 | 0.0 | 0.0 | 0.00 | 0.02 | 0.00 | 97 | 1015.2 |
| 20260906041544 | 59 | 0 | 0.0 | 0.0 | 0.00 | 0.02 | 0.00 | 97 | 1015.1 |
| 20260906040045 | 59 | 0 | 0.0 | 0.0 | 0.00 | 0.02 | 0.00 | 97 | 1015.2 |
| 20260906034539 | 60 | 0 | 0.0 | 0.0 | 0.00 | 0.02 | 0.02 | 97 | 1015.1 |
| 20260906034020 | 60 | 0 | 0.0 | 1.0 | 0.00 | 0.02 | 0.02 | 97 | 1015.0 |
| 20260906033520 | 60 | 0 | 0.0 | 1.0 | 0.00 | 0.02 | 0.02 | 97 | 1015.0 |
| 20260906033045 | 60 | 0 | 0.0 | 0.0 | 0.00 | 0.02 | 0.02 | 97 | 1014.9 |
| 20260906032518 | 60 | 0 | 0.0 | 0.0 | 0.00 | 0.02 | 0.02 | 97 | 1015.0 |
| 20260906032020 | 60 | 0 | 0.0 | 0.0 | 0.00 | 0.02 | 0.02 | 97 | 1014.8 |
| 20260906031553 | 61 | 0 | 0.0 | 0.0 | 0.00 | 0.02 | 0.02 | 97 | 1014.7 |
| 20260906030040 | 61 | 0 | 0.0 | 0.0 | 0.00 | 0.02 | 0.02 | 97 | 1014.7 |
| 20260906024538 | 61 | 0 | 0.0 | 0.0 | 0.00 | 0.02 | 0.02 | 97 | 1014.9 |
| 20260906024023 | 61 | 0 | 0.0 | 0.0 | 0.00 | 0.02 | 0.02 | 96 | 1014.7 |
| 20260906023520 | 62 | 0 | 0.0 | 0.0 | 0.00 | 0.02 | 0.02 | 96 | 1014.8 |
| 20260906023039 | 62 | 0 | 0.0 | 0.0 | 0.00 | 0.02 | 0.02 | 96 | 1014.6 |
| 20260906022523 | 62 | 0 | 0.0 | 0.0 | 0.00 | 0.02 | 0.02 | 96 | 1014.7 |
| 20260906022020 | 62 | 0 | 0.0 | 0.0 | 0.00 | 0.02 | 0.02 | 96 | 1014.7 |
| 20260906021538 | 62 | 0 | 0.0 | 0.0 | 0.00 | 0.02 | 0.02 | 96 | 1014.6 |
| 20260906021017 | 63 | 0 | 0.0 | 0.0 | 0.00 | 0.02 | 0.02 | 96 | 1014.7 |
| 20260906020042 | 63 | 0 | 0.0 | 0.0 | 0.00 | 0.02 | 0.02 | 96 | 1014.5 |
| 20260906014540 | 63 | 0 | 0.0 | 0.0 | 0.00 | 0.02 | 0.02 | 96 | 1014.4 |
| 20260906014020 | 63 | 0 | 0.0 | 0.0 | 0.00 | 0.02 | 0.02 | 96 | 1014.5 |
| 20260906013520 | 63 | 0 | 0.0 | 0.0 | 0.00 | 0.02 | 0.02 | 96 | 1014.4 |
| 20260906013040 | 63 | 0 | 0.0 | 0.0 | 0.00 | 0.02 | 0.02 | 96 | 1014.4 |
| 20260906011543 | 64 | 0 | 0.0 | 0.0 | 0.00 | 0.02 | 0.02 | 95 | 1014.4 |
| 20260906010521 | 64 | 0 | 0.0 | 0.0 | 0.00 | 0.02 | 0.02 | 95 | 1014.4 |
| 20260906010039 | 64 | 0 | 0.0 | 0.0 | 0.00 | 0.02 | 0.02 | 95 | 1014.4 |
| 20260906005520 | 65 | 0 | 0.0 | 0.0 | 0.00 | 0.02 | 0.02 | 95 | 1014.4 |
| 20260906005022 | 65 | 0 | 0.0 | 0.0 | 0.00 | 0.02 | 0.02 | 95 | 1014.3 |
| 20260906004538 | 65 | 0 | 0.0 | 0.0 | 0.00 | 0.02 | 0.02 | 95 | 1014.1 |
| 20260906003041 | 66 | 0 | 0.0 | 0.0 | 0.00 | 0.02 | 0.02 | 95 | 1014.0 |
| 20260906002019 | 66 | 0 | 0.0 | 0.0 | 0.00 | 0.02 | 0.02 | 95 | 1013.9 |
| 20260906001540 | 66 | 0 | 0.0 | 0.0 | 0.00 | 0.02 | 0.02 | 95 | 1014.1 |
| 20260906001020 | 66 | 0 | 0.0 | 0.0 | 0.00 | 0.02 | 0.02 | 95 | 1014.1 |
| 20260906000521 | 66 | 0 | 0.0 | 0.0 | 0.00 | 0.02 | 0.02 | 95 | 1014.2 |
| 20260906000039 | 66 | 0 | 0.0 | 1.0 | 0.00 | 0.02 | 0.02 | 95 | 1014.1 |
| 20260905235520 | 67 | 0 | 0.0 | 2.0 | 0.00 | 0.02 | 0.02 | 94 | 1014.0 |
| 20260905235023 | 67 | 0 | 0.0 | 2.0 | 0.00 | 0.02 | 0.02 | 94 | 1014.0 |
| 20260905234540 | 67 | 0 | 0.0 | 1.0 | 0.02 | 0.02 | 0.02 | 94 | 1013.8 |
| 20260905233043 | 68 | 0 | 0.0 | 1.0 | 0.02 | 0.02 | 0.02 | 93 | 1013.8 |
| 20260905232521 | 68 | 0 | 0.0 | 1.0 | 0.02 | 0.02 | 0.02 | 92 | 1013.7 |
| 20260905231539 | 68 | 40 | 0.0 | 4.0 | 0.02 | 0.02 | 0.02 | 91 | 1013.7 |
| 20260905231021 | 69 | 0 | 0.0 | 4.0 | 0.02 | 0.02 | 0.02 | 90 | 1013.6 |
| 20260905230520 | 69 | 62 | 0.0 | 4.0 | 0.02 | 0.02 | 0.02 | 88 | 1013.6 |
| 20260905230048 | 70 | 0 | 0.0 | 3.0 | 0.02 | 0.02 | 0.02 | 86 | 1013.7 |
| 20260905224557 | 72 | 260 | 0.0 | 8.0 | 0.00 | 0.00 | 0.00 | 81 | 1013.7 |
| 20260905224021 | 72 | 281 | 1.0 | 8.0 | 0.00 | 0.00 | 0.00 | 79 | 1013.8 |
| 20260905223522 | 72 | 290 | 2.0 | 8.0 | 0.00 | 0.00 | 0.00 | 78 | 1013.6 |
| 20260905223037 | 72 | 287 | 3.0 | 8.0 | 0.00 | 0.00 | 0.00 | 78 | 1013.6 |
| 20260905221024 | 73 | 284 | 2.0 | 9.0 | 0.00 | 0.00 | 0.00 | 77 | 1013.3 |
| 20260905220520 | 73 | 346 | 0.0 | 5.0 | 0.00 | 0.00 | 0.00 | 77 | 1013.1 |
| 20260905220041 | 73 | 265 | 1.0 | 5.0 | 0.00 | 0.00 | 0.00 | 75 | 1013.1 |
| 20260905215520 | 74 | 275 | 1.0 | 6.0 | 0.00 | 0.00 | 0.00 | 76 | 1013.2 |
| 20260905214542 | 73 | 346 | 1.0 | 4.0 | 0.00 | 0.00 | 0.00 | 76 | 1013.0 |
| 20260905213518 | 72 | 0 | 0.0 | 5.0 | 0.00 | 0.00 | 0.00 | 79 | 1013.0 |
| 20260905213039 | 72 | 0 | 1.0 | 6.0 | 0.00 | 0.00 | 0.00 | 78 | 1013.0 |
| 20260905212525 | 72 | 211 | 1.0 | 6.0 | 0.00 | 0.00 | 0.00 | 77 | 1012.9 |
| 20260905212018 | 73 | 245 | 2.0 | 7.0 | 0.00 | 0.00 | 0.00 | 76 | 1013.0 |
| 20260905211540 | 73 | 56 | 1.0 | 7.0 | 0.00 | 0.00 | 0.00 | 77 | 1013.0 |
| 20260905211020 | 72 | 0 | 1.0 | 6.0 | 0.00 | 0.00 | 0.00 | 76 | 1012.9 |
| 20260905210524 | 72 | 19 | 1.0 | 9.0 | 0.00 | 0.00 | 0.00 | 77 | 1012.9 |
| 20260905210043 | 72 | 342 | 4.0 | 9.0 | 0.00 | 0.00 | 0.00 | 76 | 1013.1 |
| 20260905204539 | 72 | 0 | 0.0 | 8.0 | 0.00 | 0.00 | 0.00 | 76 | 1012.9 |
| 20260905203051 | 72 | 260 | 1.0 | 7.0 | 0.00 | 0.00 | 0.00 | 76 | 1013.0 |
| 20260905202521 | 72 | 0 | 1.0 | 7.0 | 0.00 | 0.00 | 0.00 | 76 | 1013.0 |
| 20260905202020 | 72 | 0 | 1.0 | 7.0 | 0.00 | 0.00 | 0.00 | 77 | 1013.0 |
| 20260905201544 | 71 | 179 | 0.0 | 5.0 | 0.00 | 0.00 | 0.00 | 77 | 1013.1 |
| 20260905201020 | 71 | 0 | 1.0 | 6.0 | 0.00 | 0.00 | 0.00 | 76 | 1013.1 |
| 20260905200523 | 72 | 0 | 1.0 | 6.0 | 0.00 | 0.00 | 0.00 | 75 | 1013.0 |
| 20260905200051 | 72 | 276 | 2.0 | 8.0 | 0.00 | 0.00 | 0.00 | 74 | 1013.1 |
| 20260905195520 | 73 | 260 | 1.0 | 8.0 | 0.00 | 0.00 | 0.00 | 73 | 1013.0 |
| 20260905195020 | 73 | 260 | 3.0 | 8.0 | 0.00 | 0.00 | 0.00 | 73 | 1013.0 |